Location: Casteau
(50.5142°N, 4.0161°E)
Time: 02:28:01
(UTC+00:00)

H-2A R/B - Pass Details

Date: 18 September 2020
Orbit: 734 x 836 km, 98.2° (Epoch: 24 October)

Event Time Altitude Azimuth Distance (km) Brightness Sun altitude
Rises 19:14:20 0° 181° (S) 3,161 5.0 -13.9°
Reaches altitude 10° 19:16:40 10° 188° (S) 2,251 4.3 -14.3°
Maximum altitude 19:21:26 47° 262° (W) 1,002 3.0 -15.0°
Drops below altitude 10° 19:26:20 10° 336° (NNW) 2,317 5.2 -15.7°
Sets 19:28:46 0° 342° (NNW) 3,264 5.9 -16.0°
